| time (UTC) | temp C | wind direction | speed KPH | gust KPH | rain 1hr cm | rain 24hr cm | rain mn cm | humidity % | barometer mb |
| 20260506184624 | 15 | 171 | 4.8 | 0.0 | 0.00 | 0.00 | 0.03 | 84 | 1010.8 |
| 20260506183057 | 15 | 134 | 4.8 | 0.0 | 0.00 | 0.00 | 0.03 | 83 | 1010.8 |
| 20260506181510 | 15 | 131 | 6.4 | 0.0 | 0.00 | 0.00 | 0.03 | 84 | 1010.6 |
| 20260506180145 | 15 | 132 | 6.4 | 0.0 | 0.00 | 0.00 | 0.03 | 84 | 1010.6 |
| 20260506174625 | 15 | 123 | 11.3 | 0.0 | 0.00 | 0.00 | 0.03 | 84 | 1010.4 |
| 20260506173129 | 15 | 130 | 14.5 | 0.0 | 0.00 | 0.00 | 0.03 | 84 | 1010.3 |
| 20260506171602 | 15 | 146 | 11.3 | 0.0 | 0.00 | 0.00 | 0.00 | 83 | 1010.4 |
| 20260506170049 | 15 | 123 | 9.7 | 0.0 | 0.00 | 0.00 | 0.00 | 82 | 1010.3 |
| 20260506164642 | 15 | 90 | 11.3 | 0.0 | 0.00 | 0.00 | 0.00 | 82 | 1010.2 |
| 20260506163132 | 15 | 109 | 14.5 | 0.0 | 0.00 | 0.00 | 0.00 | 81 | 1010.1 |
| 20260506161613 | 16 | 111 | 11.3 | 0.0 | 0.00 | 0.00 | 0.00 | 73 | 1010.0 |
| 20260506160020 | 17 | 192 | 16.1 | 0.0 | 0.00 | 0.00 | 0.00 | 69 | 1009.5 |
| 20260506154504 | 17 | 58 | 22.5 | 0.0 | 0.00 | 0.00 | 0.00 | 67 | 1009.1 |
| 20260506153132 | 18 | 172 | 20.9 | 0.0 | 0.00 | 0.00 | 0.00 | 65 | 1008.9 |
| 20260506151612 | 18 | 213 | 19.3 | 0.0 | 0.00 | 0.00 | 0.00 | 66 | 1009.0 |
| 20260506150023 | 18 | 54 | 19.3 | 0.0 | 0.00 | 0.00 | 0.00 | 66 | 1009.2 |
| 20260506144509 | 18 | 46 | 17.7 | 0.0 | 0.00 | 0.00 | 0.00 | 67 | 1009.1 |
| 20260506143143 | 18 | 57 | 17.7 | 0.0 | 0.00 | 0.00 | 0.00 | 68 | 1009.1 |
| 20260506141624 | 18 | 53 | 17.7 | 0.0 | 0.00 | 0.00 | 0.00 | 66 | 1009.3 |
| 20260506140100 | 18 | 52 | 20.9 | 0.0 | 0.00 | 0.00 | 0.00 | 67 | 1009.5 |
| 20260506134516 | 18 | 53 | 17.7 | 0.0 | 0.00 | 0.00 | 0.00 | 66 | 1009.6 |
| 20260506133142 | 18 | 77 | 17.7 | 0.0 | 0.00 | 0.00 | 0.00 | 63 | 1009.7 |
| 20260506131617 | 19 | 86 | 17.7 | 0.0 | 0.00 | 0.00 | 0.00 | 62 | 1009.8 |
| 20260506130110 | 18 | 78 | 14.5 | 0.0 | 0.00 | 0.00 | 0.00 | 61 | 1010.0 |
| 20260506124552 | 19 | 78 | 17.7 | 0.0 | 0.00 | 0.00 | 0.00 | 62 | 1010.0 |
| 20260506123142 | 18 | 182 | 17.7 | 0.0 | 0.00 | 0.00 | 0.00 | 62 | 1010.0 |
| 20260506121623 | 19 | 181 | 12.9 | 0.0 | 0.00 | 0.00 | 0.00 | 63 | 1010.1 |
| 20260506114522 | 19 | 180 | 17.7 | 0.0 | 0.00 | 0.00 | 0.00 | 62 | 1009.9 |
| 20260506113141 | 19 | 236 | 17.7 | 0.0 | 0.00 | 0.00 | 0.00 | 60 | 1009.9 |
| 20260506111627 | 18 | 242 | 17.7 | 0.0 | 0.00 | 0.00 | 0.00 | 64 | 1010.1 |
| 20260506110056 | 17 | 188 | 8.0 | 0.0 | 0.00 | 0.00 | 0.00 | 65 | 1010.2 |
| 20260506104518 | 17 | 145 | 8.0 | 0.0 | 0.00 | 0.00 | 0.00 | 67 | 1010.4 |
| 20260506103140 | 17 | 125 | 8.0 | 0.0 | 0.00 | 0.00 | 0.00 | 67 | 1010.5 |
| 20260506101622 | 17 | 159 | 11.3 | 0.0 | 0.00 | 0.00 | 0.00 | 66 | 1010.6 |
| 20260506100105 | 17 | 109 | 11.3 | 0.0 | 0.00 | 0.00 | 0.00 | 66 | 1010.6 |
| 20260506094557 | 17 | 72 | 4.8 | 0.0 | 0.00 | 0.00 | 0.00 | 67 | 1010.6 |
| 20260506093002 | 16 | 101 | 3.2 | 0.0 | 0.00 | 0.00 | 0.00 | 71 | 1010.7 |
| 20260506091632 | 16 | 286 | 3.2 | 0.0 | 0.00 | 0.00 | 0.00 | 72 | 1010.6 |
| 20260506090107 | 16 | 291 | 6.4 | 0.0 | 0.00 | 0.00 | 0.00 | 73 | 1010.7 |
| 20260506084552 | 16 | 334 | 3.2 | 0.0 | 0.00 | 0.00 | 0.00 | 73 | 1010.6 |
| 20260506083144 | 16 | 286 | 3.2 | 0.0 | 0.00 | 0.00 | 0.00 | 76 | 1010.6 |
| 20260506081618 | 15 | 333 | 4.8 | 0.0 | 0.00 | 0.00 | 0.00 | 80 | 1010.4 |
| 20260506080108 | 14 | 300 | 3.2 | 0.0 | 0.00 | 0.00 | 0.00 | 84 | 1010.5 |
| 20260506073002 | 12 | 313 | 1.6 | 0.0 | 0.00 | 0.00 | 0.00 | 88 | 1010.5 |
| 20260506071636 | 12 | 315 | 1.6 | 0.0 | 0.00 | 0.00 | 0.00 | 88 | 1010.3 |
| 20260506070127 | 11 | 317 | 3.2 | 0.0 | 0.00 | 0.00 | 0.00 | 89 | 1010.4 |
| 20260506061504 | 10 | 89 | 1.6 | 0.0 | 0.00 | 0.00 | 0.00 | 89 | 1010.3 |
| 20260506060124 | 10 | 271 | 0.0 | 0.0 | 0.00 | 0.00 | 0.00 | 90 | 1010.2 |
| 20260506044558 | 8 | 294 | 1.6 | 0.0 | 0.00 | 0.00 | 0.00 | 89 | 1009.5 |
| 20260506043012 | 9 | 295 | 0.0 | 0.0 | 0.00 | 0.00 | 0.00 | 89 | 1009.4 |
| 20260506041641 | 9 | 295 | 0.0 | 0.0 | 0.00 | 0.00 | 0.00 | 89 | 1009.3 |
| 20260506040118 | 9 | 295 | 1.6 | 0.0 | 0.00 | 0.00 | 0.00 | 89 | 1009.3 |
| 20260506034600 | 9 | 295 | 1.6 | 0.0 | 0.00 | 0.00 | 0.00 | 89 | 1009.3 |
| 20260506033006 | 10 | 294 | 0.0 | 0.0 | 0.00 | 0.00 | 0.00 | 89 | 1009.3 |
| 20260506031626 | 10 | 295 | 0.0 | 0.0 | 0.00 | 0.00 | 0.00 | 89 | 1009.3 |
| 20260506030107 | 10 | 295 | 0.0 | 0.0 | 0.00 | 0.00 | 0.00 | 89 | 1009.3 |
| 20260506024532 | 10 | 295 | 0.0 | 0.0 | 0.00 | 0.00 | 0.00 | 92 | 1009.1 |
| 20260506023142 | 10 | 292 | 3.2 | 0.0 | 0.00 | 0.00 | 0.00 | 89 | 1009.1 |
| 20260506021640 | 10 | 295 | 3.2 | 0.0 | 0.00 | 0.00 | 0.00 | 88 | 1008.9 |
| 20260506020116 | 10 | 306 | 3.2 | 0.0 | 0.00 | 0.00 | 0.00 | 88 | 1009.0 |
| 20260506014526 | 10 | 306 | 4.8 | 0.0 | 0.00 | 0.00 | 0.00 | 88 | 1009.0 |
| 20260506013008 | 10 | 307 | 4.8 | 0.0 | 0.00 | 0.00 | 0.00 | 87 | 1009.0 |
| 20260506011637 | 11 | 310 | 4.8 | 0.0 | 0.00 | 0.00 | 0.00 | 87 | 1009.0 |
| 20260506010114 | 11 | 329 | 3.2 | 0.0 | 0.00 | 0.00 | 0.00 | 86 | 1009.1 |
| 20260506004518 | 11 | 333 | 3.2 | 0.0 | 0.00 | 0.00 | 0.00 | 85 | 1009.3 |
| 20260506003141 | 11 | 334 | 1.6 | 0.0 | 0.00 | 0.00 | 0.00 | 83 | 1009.3 |
| 20260506001622 | 12 | 336 | 3.2 | 0.0 | 0.00 | 0.00 | 0.00 | 80 | 1009.1 |
| 20260506000120 | 12 | 336 | 0.0 | 0.0 | 0.00 | 0.00 | 0.00 | 79 | 1009.3 |
| 20260505234511 | 12 | 336 | 0.0 | 0.0 | 0.00 | 0.00 | 0.00 | 79 | 1009.5 |
| 20260505233130 | 12 | 336 | 3.2 | 0.0 | 0.00 | 0.00 | 0.00 | 78 | 1009.7 |
| 20260505231617 | 12 | 336 | 1.6 | 0.0 | 0.00 | 0.00 | 0.00 | 79 | 1009.9 |
| 20260505230110 | 12 | 336 | 1.6 | 0.0 | 0.00 | 0.00 | 0.00 | 79 | 1010.0 |
| 20260505224646 | 12 | 336 | 4.8 | 0.0 | 0.00 | 0.00 | 0.00 | 78 | 1009.8 |
| 20260505223025 | 12 | 27 | 3.2 | 0.0 | 0.00 | 0.00 | 0.00 | 80 | 1009.9 |
| 20260505221639 | 12 | 355 | 1.6 | 0.0 | 0.00 | 0.00 | 0.00 | 81 | 1010.0 |
| 20260505220008 | 12 | 355 | 0.0 | 0.0 | 0.00 | 0.00 | 0.00 | 81 | 1010.1 |
| 20260505214629 | 12 | 355 | 4.8 | 0.0 | 0.00 | 0.00 | 0.03 | 80 | 1010.2 |
| 20260505213019 | 13 | 360 | 1.6 | 0.0 | 0.00 | 0.00 | 0.03 | 81 | 1010.2 |
| 20260505211637 | 12 | 337 | 1.6 | 0.0 | 0.00 | 0.00 | 0.03 | 81 | 1010.3 |
| 20260505210016 | 12 | 40 | 3.2 | 0.0 | 0.00 | 0.00 | 0.03 | 82 | 1010.4 |
| 20260505204632 | 12 | 73 | 8.0 | 0.0 | 0.00 | 0.00 | 0.03 | 82 | 1010.0 |
| 20260505203016 | 12 | 87 | 8.0 | 0.0 | 0.00 | 0.00 | 0.03 | 82 | 1010.2 |
| 20260505201642 | 12 | 87 | 11.3 | 0.0 | 0.00 | 0.00 | 0.03 | 82 | 1009.7 |
| 20260505200017 | 13 | 63 | 12.9 | 0.0 | 0.00 | 0.00 | 0.03 | 82 | 1009.2 |
| 20260505194637 | 13 | 48 | 17.7 | 0.0 | 0.00 | 0.00 | 0.03 | 81 | 1009.1 |
| 20260505193026 | 15 | 38 | 17.7 | 0.0 | 0.00 | 0.00 | 0.03 | 81 | 1008.9 |
| 20260505191510 | 16 | 26 | 1.6 | 0.0 | 0.00 | 0.00 | 0.03 | 85 | 1008.7 |
| 20260505190139 | 16 | 360 | 1.6 | 0.0 | 0.00 | 0.00 | 0.03 | 85 | 1008.5 |